Change the Weather History Date:

Monday, April 16, 2012

  Actual Average Record
Temperature  
Mean Temperature 57 °F 55 °F  
Max Temperature 65 °F 65 °F 85 °F (1963)
Min Temperature 48 °F 45 °F 26 °F (1951)
Degree Days  
Heating Degree Days 8 10  
Month to date heating degree days 113 201  
Since 1 July heating degree days 3718 4718  
Cooling Degree Days 0 1  
Month to date cooling degree days 20 8  
Year to date cooling degree days 62 9  
Growing Degree Days 6 (Base 50)    
Moisture  
Dew Point 38 °F    
Average Humidity 50    
Maximum Humidity 66    
Minimum Humidity 34    
Precipitation  
Precipitation 0.00 in 0.14 in 2.18 in (1960)
Month to date precipitation 0.23 1.77  
Year to date precipitation 5.00 7.09  
Sea Level Pressure  
Sea Level Pressure 30.05 in    
Wind  
Wind Speed 8 mph (WNW)    
Max Wind Speed 26 mph    
Max Gust Speed 40 mph    
Visibility 10 miles    
Events      
T = Trace of Precipitation, MM = Missing Value Source: NWS Daily Summary

Daily Weather History Graph

Daily Weather History Graph

Search for Another Location

Airport or City:

Trip Planner

Search our weather history database for the weather conditions in past years. The results will help you decide how hot, cold, wet, or windy it might be!

Date:

Astronomy

Apr. 16, 2012 Rise Set
Actual Time 6:40 AM CDT 7:57 PM CDT
Civil Twilight 6:12 AM CDT 8:25 PM CDT
Nautical Twilight 5:39 AM CDT 8:58 PM CDT
Astronomical Twilight 5:05 AM CDT 9:33 PM CDT
Moon 4:06 AM CDT (4/16) 3:55 PM CDT (4/16)
Length of Visible Light 14h 12m
Length of Day
13h 17m
Waning Crescent, 19% of the Moon is Illuminated
Apr 16
Waning Crescent
Apr 21
New
Apr 29
First Quarter
May 5
Full
May 12
Last Quarter

Hourly Weather History & Observations

Time (CDT) Temp. Dew Point Humidity Pressure Visibility Wind Dir Wind Speed Gust Speed Precip Events Conditions
12:53 AM 52.0 °F 37.9 °F 59% 29.65 in 10.0 mi West 17.3 mph 35.7 mph N/A   Mostly Cloudy
1:53 AM 51.1 °F 37.9 °F 61% 29.68 in 10.0 mi West 20.7 mph 34.5 mph N/A   Overcast
2:53 AM 50.0 °F 37.0 °F 61% 29.72 in 10.0 mi West 18.4 mph 35.7 mph N/A   Mostly Cloudy
3:53 AM 50.0 °F 37.9 °F 63% 29.78 in 10.0 mi WNW 13.8 mph 36.8 mph N/A   Overcast
4:53 AM 50.0 °F 37.0 °F 61% 29.83 in 10.0 mi WNW 12.7 mph 23.0 mph N/A   Overcast
5:53 AM 48.9 °F 37.9 °F 66% 29.89 in 10.0 mi WNW 9.2 mph 21.9 mph N/A   Scattered Clouds
6:53 AM 48.0 °F 37.0 °F 66% 29.94 in 10.0 mi WNW 12.7 mph 25.3 mph N/A   Clear
7:53 AM 48.9 °F 37.0 °F 64% 30.00 in 10.0 mi NW 15.0 mph 19.6 mph N/A   Scattered Clouds
8:53 AM 51.1 °F 37.9 °F 61% 30.03 in 10.0 mi WNW 8.1 mph 19.6 mph N/A   Scattered Clouds
9:53 AM 54.0 °F 39.0 °F 57% 30.08 in 10.0 mi WNW 6.9 mph 21.9 mph N/A   Clear
10:53 AM 55.9 °F 39.0 °F 53% 30.12 in 10.0 mi NW 8.1 mph - N/A   Partly Cloudy
11:53 AM 57.9 °F 39.0 °F 49% 30.13 in 10.0 mi WNW 8.1 mph - N/A   Partly Cloudy
12:53 PM 60.1 °F 37.9 °F 44% 30.15 in 10.0 mi Variable 6.9 mph - N/A   Clear
1:53 PM 62.1 °F 37.0 °F 39% 30.15 in 10.0 mi Variable 4.6 mph - N/A   Clear
2:53 PM 64.0 °F 36.0 °F 35% 30.14 in 10.0 mi NW 9.2 mph - N/A   Clear
3:53 PM 64.9 °F 36.0 °F 34% 30.14 in 10.0 mi West 15.0 mph 18.4 mph N/A   Partly Cloudy
4:10 PM 64.4 °F 35.6 °F 34% 30.16 in 10.0 mi West 10.4 mph 17.3 mph N/A   Partly Cloudy
4:53 PM 64.9 °F 37.0 °F 36% 30.15 in 10.0 mi WNW 8.1 mph - N/A   Scattered Clouds
5:53 PM 64.9 °F 37.9 °F 37% 30.17 in 10.0 mi WNW 6.9 mph - N/A   Scattered Clouds
6:53 PM 62.1 °F 37.0 °F 39% 30.18 in 8.0 mi West 5.8 mph - N/A   Clear
7:53 PM 61.0 °F 37.9 °F 42% 30.19 in 10.0 mi Calm Calm - N/A   Clear
8:53 PM 57.0 °F 41.0 °F 55% 30.21 in 10.0 mi Calm Calm - N/A   Clear
9:53 PM 57.0 °F 39.9 °F 53% 30.22 in 10.0 mi Calm Calm - N/A   Clear
10:53 PM 55.0 °F 39.0 °F 55% 30.23 in 10.0 mi Calm Calm - N/A   Clear
11:53 PM 57.0 °F 39.0 °F 51% 30.23 in 10.0 mi North 3.5 mph - N/A   Clear